STARLINK-30130, 56697

Orbit data source: Space-Track

STARLINK-30130, 56697 is a payload satellite owned by SpaceX/Seattle (US) in LEO that was launched on Fri, 19 May 2023 UTC via an FALCON 9 launch vehicle from the Air Force Eastern Test Range (AFETR). Payload-class satellites include a variety of spacecraft equipped with specific instruments for various scientific and technological missions. These include communications satellites like Starlink; space stations such as the ISS; scientific satellites like the Hubble; Earth observation satellites from companies like Planet Labs, Umbra, and HawkEye 360; GPS; miniature CubeSats for education and research; and military/defense satellites.

Loading next visibility...
Identifier
56697, 2023-067K
Orbit
LEO
Country
Flag of USUS
Related business
Manufacturer
SpaceX/Seattle
Mission
Operational Commercial Communications
Bus & Motor
STARLINK V2M, Unknown motor
Mass
730 kg wet, ~700 kg dry
Launch date (UTC)
2023-05-19 (3 years ago)
Launch vehicle
FALCON 9
Launch site
Air Force Eastern Test Range (AFETR)
Object type
Payload
Rocket body
Debris
Shape & HBR
Box + 2 Pan, 17.7 m
Radar Cross Section
33.884 m², Large (>1 m²)

Expand to show TLE details & history
Last TLE update: 2 days ago

TLE from 2 days ago
0 STARLINK-30130
1 56697U 23067K   26171.35180963  .00002507  00000-0  10059-3 0  9995
2 56697  43.0028  51.0390 0001353 265.3983  94.6714 15.27581939171143
Epoch: 2026-06-20T08:26Z
TLE epoch observation values (Epoch: 2026-06-20T08:26:36.352Z)
Latitude
-0.00001°
Longitude
15.81985°
Altitude
482.895 km
Speed
7.626 km/s
True Right ascension
03h 24m 09s
True Declination
0° 00' 00"
Sunlit
Object was in daylight at epoch
Visualization orbit readout
Latitude
Unknown
Longitude
Unknown
Altitude
Unknown
Speed
Unknown
Apparent Right ascension
Unknown
Apparent Declination
Unknown
Sunlit
N/A
Visualization observer readout
Local Sidereal Time
21:31:12
Azimuth
Unknown
Elevation
Unknown
Doppler factor
Unknown
Orbital elements
Apogee altitude
485.917 km
Perigee altitude
484.059 km
Semi-major axis
6,863.125 km
Eccentricity
0.00014
Inclination
43.0028°
RAAN
51.039°
Arg. of periapsis
265.3983°
True anomaly
94.68685°
Mean anomaly
94.6714°
Eccentric anomaly
94.67913°
Mean motion
3.81734 °/min
Orbital period
94.31 mins
BSTAR
0.00010059
Loading maneuver chart data...
Computing Atmospheric mass density...
Loading historical data...
Loading historical data...
Loading historical data...
Loading historical data...
Loading historical data...
Loading historical data...
Loading historical data...

Documentation

Showing up to 5 results
|